Time,TemperatureF,DewpointF,PressureIn,WindDirection,WindDirectionDegrees,WindSpeedMPH,WindSpeedGustMPH,Humidity,HourlyPrecipIn,Conditions,Clouds,dailyrainin,SoftwareType,DateUTC
2013-03-14 00:01:00,62.0,49.0,30.16,West,263,1.0,2.0,63,0.00,,,0.00,,2013-03-14 07:01:00,
2013-03-14 00:11:00,62.0,49.0,30.16,West,263,1.0,2.0,63,0.00,,,0.00,,2013-03-14 07:11:00,
2013-03-14 00:22:00,62.0,50.0,30.16,West,263,0.0,1.0,64,0.00,,,0.00,,2013-03-14 07:22:00,
2013-03-14 00:32:00,62.0,50.0,30.16,West,263,1.0,1.0,64,0.00,,,0.00,,2013-03-14 07:32:00,
2013-03-14 00:42:00,62.0,50.0,30.16,West,263,1.0,1.0,64,0.00,,,0.00,,2013-03-14 07:42:00,
2013-03-14 00:52:00,62.0,50.0,30.16,West,263,1.0,1.0,64,0.00,,,0.00,,2013-03-14 07:52:00,
2013-03-14 01:02:00,62.0,50.0,30.15,West,263,0.0,1.0,65,0.00,,,0.00,,2013-03-14 08:02:00,
2013-03-14 01:11:00,62.0,50.0,30.15,West,263,0.0,1.0,65,0.00,,,0.00,,2013-03-14 08:11:00,
2013-03-14 01:21:00,62.0,50.0,30.15,West,263,0.0,2.0,65,0.00,,,0.00,,2013-03-14 08:21:00,
2013-03-14 01:32:00,61.0,50.0,30.16,West,263,0.0,0.0,66,0.00,,,0.00,,2013-03-14 08:32:00,
2013-03-14 01:41:00,61.0,50.0,30.16,West,263,0.0,0.0,66,0.00,,,0.00,,2013-03-14 08:41:00,
2013-03-14 01:51:00,60.0,49.0,30.15,West,263,0.0,0.0,68,0.00,,,0.00,,2013-03-14 08:51:00,
2013-03-14 02:01:00,60.0,50.0,30.15,West,263,1.0,1.0,70,0.00,,,0.00,,2013-03-14 09:01:00,
2013-03-14 02:11:00,60.0,50.0,30.15,West,263,1.0,1.0,70,0.00,,,0.00,,2013-03-14 09:11:00,
2013-03-14 02:22:00,60.0,50.0,30.15,West,263,0.0,1.0,69,0.00,,,0.00,,2013-03-14 09:22:00,
2013-03-14 02:32:00,60.0,49.0,30.15,West,263,0.0,1.0,68,0.00,,,0.00,,2013-03-14 09:32:00,
2013-03-14 02:41:00,60.0,49.0,30.15,West,263,0.0,1.0,68,0.00,,,0.00,,2013-03-14 09:41:00,
2013-03-14 02:52:00,60.0,49.0,30.15,West,263,0.0,1.0,68,0.00,,,0.00,,2013-03-14 09:52:00,
2013-03-14 03:02:00,60.0,49.0,30.15,West,263,0.0,1.0,67,0.00,,,0.00,,2013-03-14 10:02:00,
2013-03-14 03:11:00,60.0,49.0,30.15,West,263,0.0,1.0,67,0.00,,,0.00,,2013-03-14 10:11:00,
2013-03-14 03:22:00,60.0,49.0,30.15,West,263,0.0,1.0,67,0.00,,,0.00,,2013-03-14 10:22:00,
2013-03-14 03:32:00,60.0,49.0,30.15,West,263,0.0,1.0,67,0.00,,,0.00,,2013-03-14 10:32:00,
2013-03-14 03:52:00,60.0,50.0,30.15,West,263,0.0,0.0,70,0.00,,,0.00,,2013-03-14 10:52:00,
2013-03-14 04:02:00,59.0,50.0,30.14,West,263,1.0,1.0,71,0.00,,,0.00,,2013-03-14 11:02:00,
2013-03-14 04:12:00,59.0,50.0,30.14,West,263,1.0,1.0,71,0.00,,,0.00,,2013-03-14 11:12:00,
2013-03-14 04:22:00,60.0,51.0,30.14,West,263,1.0,2.0,71,0.00,,,0.00,,2013-03-14 11:22:00,
2013-03-14 04:32:00,60.0,50.0,30.14,West,263,0.0,1.0,70,0.00,,,0.00,,2013-03-14 11:32:00,
2013-03-14 04:52:00,60.0,50.0,30.14,West,263,1.0,1.0,70,0.00,,,0.00,,2013-03-14 11:52:00,
2013-03-14 05:02:00,60.0,51.0,30.13,West,263,1.0,1.0,71,0.00,,,0.00,,2013-03-14 12:02:00,
2013-03-14 05:22:00,60.0,50.0,30.13,West,263,0.0,1.0,69,0.00,,,0.00,,2013-03-14 12:22:00,
2013-03-14 05:32:00,60.0,50.0,30.13,West,263,1.0,1.0,69,0.00,,,0.00,,2013-03-14 12:32:00,
2013-03-14 05:52:00,60.0,49.0,30.13,West,263,0.0,1.0,68,0.00,,,0.00,,2013-03-14 12:52:00,
2013-03-14 06:02:00,60.0,49.0,30.13,West,263,1.0,2.0,68,0.00,,,0.00,,2013-03-14 13:02:00,
2013-03-14 06:21:00,60.0,50.0,30.13,West,263,0.0,1.0,69,0.00,,,0.00,,2013-03-14 13:21:00,
2013-03-14 06:32:00,59.0,50.0,30.14,West,263,0.0,1.0,71,0.00,,,0.00,,2013-03-14 13:32:00,
2013-03-14 06:52:00,58.0,49.0,30.14,West,263,0.0,0.0,73,0.00,,,0.00,,2013-03-14 13:52:00,
2013-03-14 07:02:00,58.0,50.0,30.14,West,263,1.0,1.0,75,0.00,,,0.00,,2013-03-14 14:02:00,
2013-03-14 07:11:00,58.0,50.0,30.14,West,263,1.0,1.0,75,0.00,,,0.00,,2013-03-14 14:11:00,
2013-03-14 07:22:00,57.0,50.0,30.14,West,263,0.0,1.0,76,0.00,,,0.00,,2013-03-14 14:22:00,
2013-03-14 07:32:00,57.0,50.0,30.14,West,263,0.0,1.0,78,0.00,,,0.00,,2013-03-14 14:32:00,
2013-03-14 07:42:00,57.0,50.0,30.14,West,263,0.0,1.0,78,0.00,,,0.00,,2013-03-14 14:42:00,
2013-03-14 07:52:00,57.0,50.0,30.15,West,263,0.0,1.0,78,0.00,,,0.00,,2013-03-14 14:52:00,
2013-03-14 08:02:00,57.0,51.0,30.15,West,263,1.0,2.0,80,0.00,,,0.00,,2013-03-14 15:02:00,
2013-03-14 08:11:00,57.0,51.0,30.15,West,263,1.0,2.0,80,0.00,,,0.00,,2013-03-14 15:11:00,
2013-03-14 08:22:00,57.0,51.0,30.16,West,263,0.0,1.0,79,0.00,,,0.00,,2013-03-14 15:22:00,
2013-03-14 08:32:00,57.0,51.0,30.15,West,263,1.0,1.0,80,0.00,,,0.00,,2013-03-14 15:32:00,
2013-03-14 08:42:00,57.0,51.0,30.15,West,263,1.0,1.0,80,0.00,,,0.00,,2013-03-14 15:42:00,
2013-03-14 08:52:00,58.0,52.0,30.16,West,263,0.0,1.0,80,0.00,,,0.00,,2013-03-14 15:52:00,
2013-03-14 09:02:00,59.0,52.0,30.17,West,263,1.0,2.0,79,0.00,,,0.00,,2013-03-14 16:02:00,
2013-03-14 09:12:00,59.0,52.0,30.17,West,263,1.0,2.0,79,0.00,,,0.00,,2013-03-14 16:12:00,
2013-03-14 09:22:00,59.0,52.0,30.18,West,263,0.0,1.0,78,0.00,,,0.00,,2013-03-14 16:22:00,
2013-03-14 09:32:00,59.0,52.0,30.19,West,263,1.0,2.0,79,0.00,,,0.00,,2013-03-14 16:32:00,
2013-03-14 09:42:00,59.0,52.0,30.19,West,263,1.0,2.0,79,0.00,,,0.00,,2013-03-14 16:42:00,
2013-03-14 09:52:00,58.0,52.0,30.19,SW,236,0.0,2.0,80,0.00,,,0.00,,2013-03-14 16:52:00,
2013-03-14 10:01:00,59.0,52.0,30.19,SW,236,0.0,2.0,79,0.00,,,0.00,,2013-03-14 17:01:00,
2013-03-14 10:12:00,59.0,52.0,30.19,SW,236,0.0,2.0,79,0.00,,,0.00,,2013-03-14 17:12:00,
2013-03-14 10:22:00,60.0,54.0,30.19,WSW,246,1.0,2.0,80,0.00,,,0.00,,2013-03-14 17:22:00,
2013-03-14 10:32:00,59.0,52.0,30.19,WSW,250,1.0,2.0,78,0.00,,,0.00,,2013-03-14 17:32:00,
2013-03-14 10:41:00,59.0,52.0,30.19,WSW,250,1.0,2.0,78,0.00,,,0.00,,2013-03-14 17:41:00,
2013-03-14 10:52:00,59.0,53.0,30.19,WSW,254,1.0,3.0,80,0.00,,,0.00,,2013-03-14 17:52:00,
2013-03-14 11:02:00,60.0,53.0,30.20,WSW,257,1.0,3.0,77,0.00,,,0.00,,2013-03-14 18:02:00,
2013-03-14 11:12:00,60.0,53.0,30.20,WSW,257,1.0,3.0,77,0.00,,,0.00,,2013-03-14 18:12:00,
2013-03-14 11:22:00,62.0,54.0,30.21,WSW,243,2.0,3.0,74,0.00,,,0.00,,2013-03-14 18:22:00,
2013-03-14 11:32:00,63.0,53.0,30.21,WSW,246,1.0,3.0,70,0.00,,,0.00,,2013-03-14 18:32:00,
2013-03-14 11:42:00,63.0,53.0,30.21,WSW,246,1.0,3.0,70,0.00,,,0.00,,2013-03-14 18:42:00,
2013-03-14 11:52:00,63.0,53.0,30.21,WNW,284,1.0,3.0,69,0.00,,,0.00,,2013-03-14 18:52:00,
2013-03-14 12:02:00,65.0,51.0,30.21,SE,131,2.0,5.0,60,0.00,,,0.00,,2013-03-14 19:02:00,
2013-03-14 12:12:00,65.0,51.0,30.21,SE,131,2.0,5.0,60,0.00,,,0.00,,2013-03-14 19:12:00,
2013-03-14 12:22:00,67.0,51.0,30.21,SE,138,1.0,6.0,57,0.00,,,0.00,,2013-03-14 19:22:00,
2013-03-14 12:32:00,67.0,52.0,30.21,SSE,156,1.0,3.0,59,0.00,,,0.00,,2013-03-14 19:32:00,
2013-03-14 12:42:00,67.0,52.0,30.21,SSE,156,1.0,3.0,59,0.00,,,0.00,,2013-03-14 19:42:00,
2013-03-14 12:52:00,68.0,52.0,30.21,WSW,238,2.0,4.0,57,0.00,,,0.00,,2013-03-14 19:52:00,
2013-03-14 13:02:00,68.0,51.0,30.20,West,267,2.0,5.0,54,0.00,,,0.00,,2013-03-14 20:02:00,
2013-03-14 13:11:00,68.0,51.0,30.20,West,267,2.0,5.0,54,0.00,,,0.00,,2013-03-14 20:11:00,
2013-03-14 13:22:00,68.0,52.0,30.21,WSW,258,2.0,5.0,56,0.00,,,0.00,,2013-03-14 20:22:00,
2013-03-14 13:32:00,69.0,53.0,30.21,WNW,286,2.0,4.0,57,0.00,,,0.00,,2013-03-14 20:32:00,
2013-03-14 13:42:00,69.0,53.0,30.21,WNW,286,2.0,4.0,57,0.00,,,0.00,,2013-03-14 20:42:00,
2013-03-14 13:52:00,70.0,52.0,30.20,SE,125,2.0,4.0,52,0.00,,,0.00,,2013-03-14 20:52:00,
2013-03-14 14:02:00,70.0,51.0,30.20,West,279,1.0,4.0,51,0.00,,,0.00,,2013-03-14 21:02:00,
2013-03-14 14:12:00,70.0,51.0,30.20,West,279,1.0,4.0,51,0.00,,,0.00,,2013-03-14 21:12:00,
2013-03-14 14:22:00,69.0,52.0,30.19,NW,304,1.0,5.0,54,0.00,,,0.00,,2013-03-14 21:22:00,
2013-03-14 14:32:00,70.0,52.0,30.19,WSW,240,2.0,3.0,53,0.00,,,0.00,,2013-03-14 21:32:00,
2013-03-14 14:43:00,70.0,52.0,30.19,WSW,240,2.0,3.0,53,0.00,,,0.00,,2013-03-14 21:43:00,
2013-03-14 14:52:00,70.0,52.0,30.18,WSW,253,4.0,8.0,52,0.00,,,0.00,,2013-03-14 21:52:00,
2013-03-14 15:03:00,70.0,51.0,30.18,West,281,2.0,5.0,51,0.00,,,0.00,,2013-03-14 22:03:00,
2013-03-14 15:12:00,70.0,51.0,30.18,West,281,2.0,5.0,51,0.00,,,0.00,,2013-03-14 22:12:00,
2013-03-14 15:23:00,69.0,50.0,30.18,West,267,2.0,4.0,51,0.00,,,0.00,,2013-03-14 22:23:00,
2013-03-14 15:32:00,69.0,51.0,30.18,WSW,242,1.0,3.0,53,0.00,,,0.00,,2013-03-14 22:32:00,
2013-03-14 15:42:00,69.0,51.0,30.18,WSW,242,1.0,3.0,53,0.00,,,0.00,,2013-03-14 22:42:00,
2013-03-14 15:52:00,71.0,51.0,30.18,West,279,1.0,3.0,50,0.00,,,0.00,,2013-03-14 22:52:00,
2013-03-14 16:02:00,71.0,51.0,30.19,WNW,284,2.0,7.0,49,0.00,,,0.00,,2013-03-14 23:02:00,
2013-03-14 16:11:00,71.0,51.0,30.19,WNW,284,2.0,7.0,49,0.00,,,0.00,,2013-03-14 23:11:00,
2013-03-14 16:22:00,71.0,51.0,30.18,West,261,2.0,5.0,50,0.00,,,0.00,,2013-03-14 23:22:00,
2013-03-14 16:32:00,70.0,50.0,30.18,WNW,302,1.0,5.0,50,0.00,,,0.00,,2013-03-14 23:32:00,
2013-03-14 16:42:00,70.0,50.0,30.18,WNW,302,1.0,5.0,50,0.00,,,0.00,,2013-03-14 23:42:00,
2013-03-14 16:52:00,70.0,43.0,30.18,SSW,211,2.0,8.0,38,0.00,,,0.00,,2013-03-14 23:52:00,
2013-03-14 17:02:00,69.0,40.0,30.18,WSW,248,1.0,4.0,35,0.00,,,0.00,,2013-03-15 00:02:00,
2013-03-14 17:12:00,69.0,38.0,30.18,West,266,2.0,5.0,32,0.00,,,0.00,,2013-03-15 00:12:00,
2013-03-14 17:22:00,69.0,38.0,30.18,West,266,2.0,5.0,32,0.00,,,0.00,,2013-03-15 00:22:00,
2013-03-14 17:32:00,68.0,36.0,30.18,WNW,292,2.0,5.0,31,0.00,,,0.00,,2013-03-15 00:32:00,
2013-03-14 17:42:00,68.0,36.0,30.18,WNW,292,2.0,5.0,31,0.00,,,0.00,,2013-03-15 00:42:00,
2013-03-14 17:52:00,67.0,36.0,30.17,WNW,295,1.0,4.0,32,0.00,,,0.00,,2013-03-15 00:52:00,
2013-03-14 18:02:00,67.0,37.0,30.16,WNW,300,1.0,3.0,33,0.00,,,0.00,,2013-03-15 01:02:00,
2013-03-14 18:11:00,67.0,37.0,30.16,WNW,300,1.0,3.0,33,0.00,,,0.00,,2013-03-15 01:11:00,
2013-03-14 18:21:00,66.0,38.0,30.15,West,261,1.0,3.0,35,0.00,,,0.00,,2013-03-15 01:21:00,
2013-03-14 18:32:00,66.0,38.0,30.14,West,273,1.0,3.0,35,0.00,,,0.00,,2013-03-15 01:32:00,
2013-03-14 18:42:00,66.0,38.0,30.14,West,273,1.0,3.0,35,0.00,,,0.00,,2013-03-15 01:42:00,
2013-03-14 18:52:00,65.0,40.0,30.15,WNW,289,1.0,1.0,40,0.00,,,0.00,,2013-03-15 01:52:00,
2013-03-14 19:02:00,64.0,40.0,30.16,WNW,289,0.0,1.0,42,0.00,,,0.00,,2013-03-15 02:02:00,
2013-03-14 19:11:00,64.0,40.0,30.16,WNW,289,0.0,1.0,42,0.00,,,0.00,,2013-03-15 02:11:00,
2013-03-14 19:22:00,63.0,39.0,30.16,SE,125,0.0,1.0,41,0.00,,,0.00,,2013-03-15 02:22:00,
2013-03-14 19:32:00,63.0,40.0,30.16,SE,130,0.0,1.0,42,0.00,,,0.00,,2013-03-15 02:32:00,
2013-03-14 19:42:00,63.0,40.0,30.16,SE,130,0.0,1.0,42,0.00,,,0.00,,2013-03-15 02:42:00,
2013-03-14 19:51:00,62.0,40.0,30.15,SE,130,1.0,2.0,44,0.00,,,0.00,,2013-03-15 02:51:00,
2013-03-14 20:02:00,61.0,41.0,30.15,ESE,107,1.0,1.0,47,0.00,,,0.00,,2013-03-15 03:02:00,
2013-03-14 20:11:00,61.0,41.0,30.15,ESE,107,1.0,1.0,47,0.00,,,0.00,,2013-03-15 03:11:00,
2013-03-14 20:22:00,60.0,42.0,30.16,North,355,1.0,2.0,51,0.00,,,0.00,,2013-03-15 03:22:00,
2013-03-14 20:32:00,59.0,40.0,30.15,North,355,1.0,2.0,50,0.00,,,0.00,,2013-03-15 03:32:00,
2013-03-14 20:42:00,59.0,40.0,30.15,North,355,1.0,2.0,50,0.00,,,0.00,,2013-03-15 03:42:00,
2013-03-14 20:52:00,59.0,38.0,30.15,North,355,1.0,1.0,46,0.00,,,0.00,,2013-03-15 03:52:00,
2013-03-14 21:03:00,58.0,38.0,30.16,North,355,0.0,1.0,47,0.00,,,0.00,,2013-03-15 04:03:00,
2013-03-14 21:12:00,58.0,38.0,30.16,North,355,0.0,1.0,47,0.00,,,0.00,,2013-03-15 04:12:00,
2013-03-14 21:22:00,58.0,38.0,30.16,North,355,1.0,2.0,48,0.00,,,0.00,,2013-03-15 04:22:00,
2013-03-14 21:32:00,58.0,41.0,30.16,North,355,0.0,1.0,54,0.00,,,0.00,,2013-03-15 04:32:00,
2013-03-14 21:42:00,58.0,41.0,30.16,North,355,0.0,1.0,54,0.00,,,0.00,,2013-03-15 04:42:00,
2013-03-14 21:52:00,57.0,43.0,30.16,North,355,0.0,1.0,59,0.00,,,0.00,,2013-03-15 04:52:00,
2013-03-14 22:02:00,57.0,43.0,30.17,NE,49,1.0,2.0,60,0.00,,,0.00,,2013-03-15 05:02:00,
2013-03-14 22:12:00,57.0,43.0,30.17,NE,49,1.0,2.0,60,0.00,,,0.00,,2013-03-15 05:12:00,
2013-03-14 22:22:00,57.0,43.0,30.16,NE,42,0.0,2.0,59,0.00,,,0.00,,2013-03-15 05:22:00,
2013-03-14 22:32:00,56.0,42.0,30.17,NE,42,1.0,2.0,59,0.00,,,0.00,,2013-03-15 05:32:00,
2013-03-14 22:42:00,56.0,42.0,30.17,NE,42,1.0,2.0,59,0.00,,,0.00,,2013-03-15 05:42:00,
2013-03-14 22:52:00,55.0,41.0,30.17,NE,42,0.0,1.0,60,0.00,,,0.00,,2013-03-15 05:52:00,
2013-03-14 23:02:00,54.0,42.0,30.17,NE,42,1.0,1.0,63,0.00,,,0.00,,2013-03-15 06:02:00,
2013-03-14 23:12:00,54.0,42.0,30.17,NE,42,1.0,1.0,63,0.00,,,0.00,,2013-03-15 06:12:00,
2013-03-14 23:22:00,53.0,42.0,30.17,NE,42,0.0,2.0,66,0.00,,,0.00,,2013-03-15 06:22:00,
2013-03-14 23:32:00,53.0,42.0,30.17,NE,42,1.0,1.0,66,0.00,,,0.00,,2013-03-15 06:32:00,
2013-03-14 23:42:00,53.0,42.0,30.17,NE,42,1.0,1.0,66,0.00,,,0.00,,2013-03-15 06:42:00,
2013-03-14 23:52:00,53.0,43.0,30.17,NE,42,1.0,2.0,68,0.00,,,0.00,,2013-03-15 06:52:00,